Wind_Speed
33 35 39 35 31 24 22 25 22 25 27 27 27 24 25 11 15 22 25 25 23 20 16 18 18 19 18 16 14 12 12 10 9 9 9 8 9 10 11 12 13 14 16 16
30 36 37 32 29 27 24 23 22 21 24 21 28 28 26 19 15 11 13 24 26 23 25 24 24 22 20 16 14 13 12 11 10 11 9 8 6 5 5 5 6 6 7 7
30 26 32 33 33 30 25 25 26 23 27 25 14 24 31 25 21 17 13 14 22 22 26 29 28 24 21 19 16 13 12 13 16 16 13 11 10 9 8 7 6 6 5 5
27 32 29 33 34 33 27 25 25 26 20 23 24 21 20 29 27 25 18 19 18 19 19 20 21 19 18 18 19 18 17 17 17 16 14 14 13 13 13 14 15 16 15 13
20 29 27 35 36 33 23 25 27 26 25 20 18 13 23 23 24 28 26 23 20 19 19 18 17 16 15 18 19 20 20 19 17 15 14 12 11 10 9 9 8 11 13 13
23 15 24 30 34 32 24 24 23 27 18 13 23 22 19 25 24 26 29 27 25 22 20 20 19 19 19 20 20 21 22 19 18 16 15 13 11 9 8 6 4 6 6 8
22 27 15 24 29 34 32 22 11 11 9 10 20 19 29 20 18 17 23 26 25 28 24 24 25 25 21 20 20 21 22 21 19 17 14 12 12 10 9 6 3 1 1 4
26 23 36 21 33 31 36 33 21 16 12 15 21 16 21 25 21 21 19 21 25 26 29 29 27 24 21 21 22 21 20 23 23 20 16 14 15 14 12 9 9 9 9 9
21 25 22 33 27 32 31 36 32 18 9 12 15 18 22 20 19 20 18 22 18 17 19 23 30 30 26 21 17 16 18 20 22 22 21 20 20 19 19 16 15 13 13 15
21 9 27 17 30 31 30 33 25 24 18 17 12 9 12 16 19 18 21 18 20 21 24 25 25 28 28 23 21 21 21 19 19 24 25 25 24 24 22 22 21 19 17 18
27 24 14 24 32 38 27 24 21 22 23 14 15 22 22 18 17 17 17 20 23 23 24 28 24 27 25 24 24 25 25 24 24 23 24 27 29 29 28 20 29 23 26 22
25 17 24 28 16 32 33 32 32 27 20 19 22 25 9 10 19 20 21 25 18 24 22 29 26 27 28 26 27 26 23 23 21 22 28 28 32 37 34 38 26 31 25 25
18 14 15 18 25 36 23 35 36 32 29 31 22 23 23 20 17 19 19 18 19 19 20 25 26 26 29 26 24 25 24 24 21 26 27 30 33 36 37 40 42 33 32 23
15 14 20 27 31 31 30 26 27 35 33 29 32 32 26 29 25 21 21 21 19 24 21 26 27 20 26 26 27 25 24 24 23 24 25 28 31 35 40 45 46 51 43 40
18 21 23 35 35 35 37 35 32 30 41 35 37 39 35 30 27 25 23 24 19 24 24 28 28 16 19 24 27 22 22 22 20 19 21 22 29 35 43 47 50 54 56 49
12 6 12 27 30 32 37 37 37 35 40 36 33 33 33 30 29 27 27 29 25 27 24 26 28 24 19 24 20 19 21 21 23 24 23 24 26 28 33 43 52 53 58 59
18 6 7 14 18 28 32 39 36 38 32 41 40 38 32 28 35 36 32 28 27 28 27 28 26 25 24 25 27 23 23 28 27 27 26 27 28 29 25 26 35 41 42 37
12 7 10 16 10 10 32 34 39 40 40 36 33 33 33 35 35 36 31 34 26 27 28 29 26 25 31 27 27 27 27 24 21 16 15 17 20 23 29 27 24 30 31 26
18 3 4 7 14 16 16 24 27 35 46 44 37 31 30 36 38 33 25 36 29 29 30 27 32 29 29 29 29 29 21 14 9 9 14 16 17 20 25 26 27 24 25 23
23 10 12 6 6 6 11 21 26 28 33 35 32 32 32 31 30 27 26 32 31 31 31 33 32 29 33 33 31 26 23 16 9 13 16 16 19 21 25 25 26 23 21 25
20 22 6 11 9 8 13 20 24 19 19 28 31 32 28 29 29 31 32 34 33 32 34 36 30 34 35 32 29 24 15 9 11 18 28 33 31 22 26 27 24 22 21 23
23 21 19 2 10 7 6 12 14 22 17 29 29 27 26 27 26 26 28 26 25 27 27 27 31 35 32 26 25 19 15 19 26 40 40 29 27 27 25 24 22 18 19 19
24 25 27 12 12 22 13 11 11 13 20 24 27 32 25 22 23 22 22 23 26 32 36 37 35 28 22 18 18 20 21 29 37 25 26 27 25 24 24 25 20 16 16 18
26 29 21 21 13 10 27 29 32 33 30 32 32 29 22 22 26 28 30 31 30 28 22 24 18 16 16 20 25 32 28 33 33 32 24 21 21 21 22 27 17 16 17 18
28 24 22 21 21 20 19 21 22 28 28 23 22 24 27 26 32 26 24 22 18 18 17 18 18 20 24 31 34 33 34 27 28 23 18 19 15 13 13 11 14 16 22 22
27 30 29 29 26 22 24 14 11 12 13 10 8 12 12 14 20 19 21 18 12 12 16 20 22 25 29 28 25 25 24 19 16 11 9 9 9 10 11 13 17 21 23 24
Wind_Direction
197 200 204 202 202 216 233 233 216 226 230 230 232 237 242 270 227 217 213 218 221 220 222 227 222 219 217 216 214 216 222 219 220 222 221 219 227 235 243 249 253 250 251 257
204 212 211 209 205 211 226 229 213 220 220 230 238 244 251 255 259 261 239 228 225 221 225 224 225 228 223 212 212 212 206 206 192 180 171 170 180 192 210 221 232 241 249 255
212 219 211 209 203 205 217 227 215 216 211 223 240 251 249 250 253 237 224 216 217 219 225 226 227 225 226 218 204 187 183 179 173 165 158 146 136 125 111 100 94 85 74 65
220 216 217 209 207 208 216 218 227 210 200 223 234 258 255 252 249 241 226 213 208 202 201 207 212 210 209 195 184 175 175 172 171 169 162 150 136 123 108 98 88 79 71 63
210 212 209 215 207 203 218 225 233 225 215 227 232 234 258 253 249 250 240 233 220 209 201 195 191 187 185 191 183 176 177 178 175 170 170 170 161 147 131 110 99 76 61 52
219 211 215 220 211 208 204 214 218 215 205 221 224 216 249 249 254 259 258 243 237 228 222 204 193 194 192 194 192 190 188 187 184 178 172 166 164 164 158 150 117 88 66 52
220 221 189 209 209 205 207 201 184 198 200 225 225 222 236 258 265 255 250 260 258 237 226 217 210 208 201 203 202 205 202 201 198 194 195 194 190 190 187 180 186 186 353 360
208 222 215 199 205 199 205 205 206 207 210 220 229 220 241 258 263 268 260 260 262 252 242 226 220 218 213 214 216 212 212 213 213 213 216 216 215 216 218 234 249 264 283 303
202 224 217 215 200 199 200 210 215 231 212 222 219 234 249 240 245 249 247 252 244 237 237 237 230 224 221 213 212 210 213 218 225 229 229 234 231 230 229 232 250 264 283 287
212 219 220 218 209 211 213 216 210 216 223 234 220 228 231 233 238 248 246 253 247 245 240 224 222 223 227 218 216 219 221 226 231 233 238 245 245 239 242 249 251 261 270 288
220 220 223 208 214 213 209 208 213 225 225 231 236 237 237 238 240 244 255 268 261 241 234 218 218 217 214 215 223 226 229 232 236 238 242 246 252 247 240 259 257 245 272 280
220 224 229 232 236 227 225 224 218 220 214 227 241 233 182 236 233 243 266 252 265 248 219 213 216 218 210 209 220 221 228 235 237 244 248 251 252 249 259 258 262 257 256 271
194 208 213 237 238 241 235 228 228 232 236 227 228 232 238 236 231 235 272 255 266 220 202 205 206 211 215 219 228 227 234 238 245 253 260 261 259 258 265 262 249 245 253 261
239 249 226 233 240 233 232 232 231 226 230 231 234 239 234 240 247 244 265 253 258 212 210 210 209 215 213 217 225 228 236 245 257 265 273 273 272 268 261 260 251 261 238 256
248 251 253 242 241 229 229 232 231 230 231 231 238 237 242 243 246 249 246 231 250 220 219 213 215 211 224 220 221 227 240 249 257 266 272 278 272 263 262 263 263 264 255 279
227 229 292 252 239 228 226 228 231 237 237 239 237 237 236 241 242 245 247 237 243 234 225 229 219 219 227 227 221 231 240 252 258 261 263 262 264 269 269 264 263 270 273 277
243 294 320 294 263 237 236 231 228 229 234 232 234 240 238 246 247 252 245 242 229 225 227 221 218 231 221 229 230 233 238 247 259 267 268 268 267 269 271 269 268 272 275 275
235 280 310 284 298 216 241 241 232 230 235 235 233 235 237 246 250 249 246 230 225 226 228 225 227 229 225 233 224 232 239 255 258 267 282 285 281 277 272 270 273 276 279 286
224 197 0 258 255 264 253 244 234 230 239 239 241 241 226 242 250 246 240 232 225 225 224 229 228 230 225 219 225 230 241 229 251 298 306 292 292 292 286 281 274 272 282 274
197 195 26 298 250 253 228 228 225 226 226 231 235 227 222 240 235 229 224 224 214 213 222 231 237 224 213 219 226 222 216 223 280 309 322 307 304 298 293 283 281 284 275 270
196 220 221 339 270 267 255 216 210 192 215 215 216 224 232 221 215 218 219 209 211 218 227 231 224 211 218 216 209 210 218 239 302 316 310 299 296 296 291 292 293 286 275 273
186 191 207 309 299 251 276 231 191 214 209 201 201 201 196 195 198 206 203 208 216 226 218 213 213 214 203 202 207 220 245 268 290 300 279 280 288 296 296 299 295 286 281 276
200 201 192 161 276 307 279 212 180 167 169 165 184 190 194 196 193 190 193 190 187 182 184 189 197 196 201 214 237 255 275 294 296 278 288 285 281 288 293 295 283 287 289 270
203 208 208 195 232 138 115 120 127 125 127 130 136 147 175 196 172 171 173 176 177 177 171 181 189 209 231 267 275 281 279 279 279 288 288 273 274 281 282 289 270 277 282 264
188 188 194 207 213 160 127 120 116 123 117 117 121 130 139 151 168 155 157 161 169 186 205 218 230 248 255 264 266 270 270 288 285 283 268 270 283 289 281 266 262 276 273 264
179 185 189 195 170 182 168 166 135 130 114 113 141 139 149 154 154 162 175 179 198 224 233 243 254 266 273 276 281 286 292 291 278 269 269 268 268 279 274 270 263 262 264 267
Height
3138 3141 3140 3149 3156 3162 3165 3166 3168 3169 3171 3174 3175 3177 3178 3180 3180 3182 3183 3185 3188 3191 3193 3194 3195 3196 3196 3197 3199 3201 3202 3204 3204 3206 3206 3207 3207 3208 3208 3208 3207 3208 3208 3207
3136 3134 3143 3151 3156 3159 3161 3163 3166 3167 3170 3173 3174 3175 3176 3177 3178 3179 3180 3181 3184 3187 3187 3189 3190 3192 3193 3194 3196 3197 3200 3201 3202 3204 3205 3205 3206 3206 3206 3205 3205 3205 3204 3204
3130 3135 3141 3145 3150 3153 3156 3158 3161 3165 3167 3170 3173 3174 3172 3173 3174 3175 3176 3177 3179 3181 3182 3184 3185 3187 3190 3191 3193 3195 3198 3200 3200 3201 3203 3204 3205 3205 3204 3204 3203 3203 3202 3202
3128 3132 3135 3139 3144 3149 3151 3154 3158 3162 3165 3168 3170 3167 3166 3168 3170 3170 3172 3173 3175 3176 3178 3179 3181 3183 3186 3188 3189 3191 3194 3197 3198 3199 3201 3202 3203 3203 3203 3203 3203 3202 3202 3202
3123 3125 3130 3133 3138 3145 3150 3153 3155 3158 3162 3166 3165 3170 3161 3162 3163 3165 3167 3169 3172 3175 3176 3177 3179 3181 3184 3186 3187 3189 3191 3193 3196 3197 3199 3200 3201 3202 3203 3204 3203 3203 3203 3202
3121 3124 3126 3130 3137 3142 3147 3150 3153 3155 3160 3160 3160 3162 3155 3156 3158 3160 3162 3165 3167 3170 3173 3175 3177 3178 3180 3182 3184 3186 3188 3191 3193 3195 3197 3199 3200 3201 3202 3202 3203 3202 3202 3202
3116 3118 3122 3125 3131 3136 3140 3145 3150 3153 3153 3150 3154 3155 3149 3152 3153 3154 3157 3159 3163 3166 3168 3171 3173 3174 3177 3179 3182 3184 3186 3188 3190 3192 3194 3196 3198 3199 3200 3200 3201 3201 3200 3200
3108 3113 3113 3118 3122 3126 3131 3137 3137 3141 3143 3147 3147 3144 3139 3148 3150 3149 3152 3154 3156 3159 3162 3166 3168 3171 3173 3175 3178 3180 3182 3184 3186 3189 3191 3193 3194 3196 3197 3198 3198 3198 3199 3199
3101 3104 3109 3113 3118 3123 3126 3125 3136 3137 3137 3138 3137 3138 3139 3142 3143 3145 3147 3149 3151 3153 3156 3159 3163 3166 3168 3171 3174 3176 3178 3180 3182 3185 3187 3188 3190 3191 3193 3194 3195 3195 3195 3195
3094 3099 3100 3108 3114 3116 3117 3124 3128 3129 3127 3131 3131 3132 3134 3136 3139 3141 3142 3144 3146 3147 3151 3154 3155 3158 3163 3167 3170 3172 3174 3177 3179 3181 3183 3184 3186 3187 3189 3190 3190 3191 3191 3191
3090 3094 3097 3100 3100 3106 3111 3113 3115 3119 3120 3118 3123 3122 3129 3132 3135 3136 3138 3139 3140 3141 3144 3148 3150 3153 3159 3163 3164 3166 3168 3171 3174 3176 3178 3179 3180 3183 3186 3185 3188 3185 3187 3186
3083 3087 3089 3091 3095 3099 3103 3105 3108 3108 3113 3115 3117 3118 3122 3126 3129 3132 3133 3134 3134 3135 3137 3142 3145 3149 3153 3156 3158 3161 3164 3166 3169 3171 3172 3174 3174 3177 3176 3178 3179 3182 3183 3182
3077 3080 3083 3085 3090 3091 3092 3096 3100 3104 3107 3103 3109 3113 3119 3122 3124 3126 3127 3128 3129 3129 3131 3136 3140 3143 3147 3150 3153 3156 3158 3160 3163 3164 3166 3167 3168 3170 3171 3172 3173 3179 3178 3177
3070 3071 3072 3073 3076 3084 3086 3088 3090 3095 3096 3100 3098 3109 3111 3116 3118 3120 3122 3123 3124 3125 3127 3131 3135 3139 3142 3145 3148 3150 3152 3155 3157 3158 3159 3159 3161 3164 3165 3162 3160 3155 3164 3162
3064 3062 3063 3062 3065 3068 3073 3079 3083 3084 3087 3089 3096 3097 3102 3109 3113 3115 3117 3118 3119 3121 3123 3126 3130 3134 3137 3140 3143 3145 3147 3149 3151 3151 3152 3153 3152 3154 3153 3153 3151 3145 3146 3145
3056 3055 3056 3055 3057 3061 3061 3067 3072 3076 3081 3083 3089 3087 3096 3101 3105 3107 3110 3112 3113 3116 3119 3122 3126 3129 3132 3135 3138 3140 3142 3143 3143 3143 3143 3143 3142 3143 3142 3143 3141 3139 3138 3137
3052 3050 3050 3051 3053 3056 3056 3058 3063 3067 3069 3074 3075 3080 3090 3091 3095 3099 3102 3104 3108 3111 3114 3117 3120 3123 3127 3130 3132 3134 3134 3134 3136 3135 3135 3135 3135 3134 3134 3133 3131 3132 3132 3133
3043 3043 3044 3048 3049 3049 3041 3047 3052 3056 3060 3065 3068 3073 3079 3083 3086 3089 3092 3096 3101 3105 3108 3111 3114 3117 3120 3122 3124 3125 3127 3128 3130 3129 3129 3128 3128 3127 3125 3124 3123 3124 3124 3124
3038 3037 3040 3046 3044 3041 3035 3038 3042 3045 3047 3054 3058 3064 3069 3073 3076 3079 3083 3089 3093 3097 3100 3104 3106 3109 3112 3113 3116 3119 3121 3123 3124 3124 3124 3123 3122 3120 3118 3117 3115 3115 3114 3115
3029 3031 3035 3045 3044 3033 3029 3031 3033 3036 3038 3044 3051 3055 3059 3063 3066 3071 3076 3081 3085 3089 3092 3096 3098 3101 3104 3107 3110 3112 3113 3114 3115 3115 3115 3116 3116 3115 3113 3112 3110 3107 3108 3110
3023 3028 3032 3040 3040 3030 3027 3025 3027 3034 3035 3035 3041 3046 3049 3054 3059 3064 3068 3072 3077 3081 3085 3087 3091 3095 3098 3100 3103 3105 3106 3107 3107 3108 3110 3107 3110 3108 3106 3105 3104 3102 3102 3102
3018 3026 3033 3035 3039 3030 3025 3025 3028 3026 3024 3028 3034 3038 3043 3049 3053 3057 3062 3066 3071 3073 3076 3081 3085 3090 3092 3095 3097 3099 3100 3100 3101 3101 3103 3102 3101 3100 3099 3097 3097 3097 3098 3097
3014 3017 3021 3028 3038 3027 3022 3023 3025 3025 3024 3025 3030 3034 3039 3044 3049 3053 3057 3061 3065 3069 3071 3074 3079 3084 3087 3089 3092 3093 3093 3094 3094 3097 3095 3094 3093 3094 3092 3092 3091 3091 3092 3093
3007 3012 3016 3022 3029 3028 3025 3027 3028 3028 3029 3029 3031 3033 3035 3040 3045 3054 3056 3059 3063 3068 3071 3072 3076 3080 3081 3084 3086 3087 3088 3090 3087 3086 3086 3085 3086 3085 3084 3084 3084 3085 3086 3085
3001 3007 3012 3018 3019 3032 3031 3030 3030 3030 3031 3036 3037 3038 3040 3045 3042 3054 3056 3058 3062 3067 3069 3070 3073 3075 3076 3078 3078 3078 3078 3080 3078 3077 3076 3076 3078 3078 3077 3076 3077 3078 3078 3077
2999 3003 3008 3013 3018 3028 3030 3033 3034 3033 3033 3036 3038 3039 3043 3046 3045 3051 3052 3055 3056 3060 3061 3064 3066 3068 3069 3070 3071 3070 3070 3070 3071 3072 3072 3070 3070 3072 3072 3071 3071 3070 3069 3068